Date String (YYYY-MM-DD hh:mm:ss) UTC,Instrument flags,Ambient pressure (hPa),Sample flow (lpm),Bypass flow (lpm),Sample temperature (°C),Ambient temperature (°C),ASC tube jacket temperature (°C),LED temperature (°C),Box temperature (°C),Sample RH (%),Span deviation,Mass concentration (μg/m³),Mass concentration (μg/m³),Mass concentration (μg/m³)
DateTimeUTC,F1_M11,P_M11,Q1_M11,Q2_M11,T1_M11,T2_M11,T3_M11,T4_M11,T5_M11,U1_M11,ZSPAN_M11,X0_M11,X2_M11,X1_M11
2022-02-07 23:00:00,,0829.3,5.00,0.00,28.1,27.5,00.0,37.0,29.9,07.7,0000.0,0017.61,0007.78,0006.84
2022-02-07 23:01:00,,0829.5,4.99,0.00,28.1,27.5,00.0,37.0,30.0,07.7,0000.0,0017.39,0007.64,0006.70
2022-02-07 23:02:00,,0829.4,5.01,0.00,28.1,27.5,00.0,37.0,29.9,07.7,0000.0,0017.07,0007.50,0006.59
2022-02-07 23:03:00,,0829.5,5.00,0.00,28.1,27.5,00.0,37.0,29.9,07.6,0000.0,0016.44,0007.30,0006.45
2022-02-07 23:04:00,,0829.2,5.01,0.00,28.1,27.5,00.0,37.0,29.9,07.6,0000.0,0015.17,0007.15,0006.31
2022-02-07 23:05:00,,0829.3,5.01,0.00,28.1,27.5,00.0,37.0,29.9,07.9,0000.0,0015.04,0007.10,0006.23
2022-02-07 23:06:00,,0829.3,4.99,0.00,28.2,27.5,00.0,37.1,29.9,07.9,0000.0,0015.29,0007.05,0006.20
2022-02-07 23:07:00,,0829.3,5.00,0.00,28.1,27.5,00.0,37.1,29.9,07.6,0000.0,0015.75,0006.94,0006.13
2022-02-07 23:08:00,,0829.3,5.01,0.00,28.1,27.5,00.0,37.1,29.9,07.5,0000.0,0015.50,0006.85,0006.06
2022-02-07 23:09:00,,0829.3,5.00,0.00,28.1,27.5,00.0,37.1,29.9,07.5,0000.0,0014.86,0006.78,0006.00
2022-02-07 23:10:00,,0829.4,4.99,0.00,28.1,27.5,00.0,37.1,29.9,07.7,0000.0,0014.89,0006.72,0005.95
2022-02-07 23:11:00,,0829.3,4.99,0.00,28.1,27.5,00.0,37.1,29.9,07.8,0000.0,0014.26,0006.65,0005.91
2022-02-07 23:12:00,,0829.3,5.02,0.00,28.1,27.5,00.0,37.1,29.9,07.8,0000.0,0014.19,0006.61,0005.90
2022-02-07 23:13:00,,0829.3,4.99,0.00,28.1,27.5,00.0,37.1,29.9,07.8,0000.0,0014.56,0006.60,0005.90
2022-02-07 23:14:00,,0829.4,5.00,0.00,28.1,27.5,00.0,37.1,29.9,07.8,0000.0,0014.86,0006.69,0005.97
2022-02-07 23:15:00,,0829.2,5.01,0.00,28.1,27.5,00.0,37.1,29.9,07.8,0000.0,0015.06,0006.83,0006.06
2022-02-07 23:16:00,,0829.3,5.00,0.00,28.1,27.5,00.0,37.1,29.9,07.8,0000.0,0016.58,0006.91,0006.11
2022-02-07 23:17:00,,0829.2,5.00,0.00,28.2,27.5,00.0,37.1,29.9,07.8,0000.0,0017.04,0006.98,0006.15
2022-02-07 23:18:00,,0829.2,4.99,0.00,28.2,27.5,00.0,37.1,29.9,07.8,0000.0,0016.11,0007.04,0006.21
2022-02-07 23:19:00,,0829.2,5.01,0.00,28.2,27.5,00.0,37.1,30.0,07.8,0000.0,0016.56,0007.13,0006.31
2022-02-07 23:20:00,,0829.2,5.00,0.00,28.2,27.5,00.0,37.1,30.0,07.9,0000.0,0016.68,0007.22,0006.39
2022-02-07 23:21:00,,0829.2,4.98,0.00,28.2,27.5,00.0,37.1,30.0,07.8,0000.0,0016.11,0007.28,0006.45
2022-02-07 23:22:00,,0829.2,5.00,0.00,28.2,27.5,00.0,37.1,30.0,07.8,0000.0,0016.78,0007.37,0006.50
2022-02-07 23:23:00,,0829.3,4.99,0.00,28.2,27.5,00.0,37.1,30.0,08.0,0000.0,0017.59,0007.40,0006.49
2022-02-07 23:24:00,,0829.2,5.02,0.00,28.2,27.6,00.0,37.1,30.1,07.9,0000.0,0018.03,0007.37,0006.44
2022-02-07 23:25:00,,0829.2,4.99,0.00,28.2,27.6,00.0,37.1,30.1,07.7,0000.0,0017.84,0007.28,0006.33
2022-02-07 23:26:00,,0829.2,5.01,0.00,28.3,27.6,00.0,37.1,30.1,07.6,0000.0,0017.81,0007.12,0006.19
2022-02-07 23:27:00,,0829.2,4.99,0.00,28.3,27.6,00.0,37.1,30.1,07.5,0000.0,0017.43,0006.96,0006.03
2022-02-07 23:28:00,,0829.3,5.02,0.00,28.3,27.6,00.0,37.1,30.1,07.4,0000.0,0016.14,0006.83,0005.86
2022-02-07 23:29:00,,0829.2,4.99,0.00,28.3,27.6,00.0,37.2,30.1,07.5,0000.0,0015.84,0006.69,0005.71
2022-02-07 23:30:00,,0829.2,4.99,0.00,28.3,27.7,00.0,37.2,30.1,07.6,0000.0,0016.09,0006.58,0005.55
2022-02-07 23:31:00,,0829.2,5.01,0.00,28.3,27.7,00.0,37.2,30.2,07.6,0000.0,0015.66,0006.42,0005.38
2022-02-07 23:32:00,,0829.2,5.00,0.00,28.3,27.7,00.0,37.2,30.2,07.6,0000.0,0016.14,0006.29,0005.27
2022-02-07 23:33:00,,0829.3,4.98,0.00,28.3,27.7,00.0,37.2,30.2,07.7,0000.0,0016.07,0006.18,0005.16
2022-02-07 23:34:00,,0829.2,5.02,0.00,28.4,27.7,00.0,37.2,30.2,07.8,0000.0,0015.26,0006.10,0005.08
2022-02-07 23:35:00,,0829.3,5.00,0.00,28.4,27.8,00.0,37.2,30.2,08.1,0000.0,0014.64,0006.05,0005.03
2022-02-07 23:36:00,,0829.5,4.99,0.00,28.4,27.8,00.0,37.2,30.2,08.0,0000.0,0014.33,0006.03,0004.99
2022-02-07 23:37:00,,0829.2,5.01,0.00,28.4,27.8,00.0,37.2,30.2,08.2,0000.0,0014.35,0006.06,0005.03
2022-02-07 23:38:00,,0829.4,4.99,0.00,28.4,27.8,00.0,37.3,30.2,08.5,0000.0,0014.22,0006.25,0005.22
2022-02-07 23:39:00,,0829.1,4.98,0.00,28.4,27.8,00.0,37.3,30.3,08.2,0000.0,0014.29,0006.55,0005.56
2022-02-07 23:40:00,,0829.5,5.02,0.00,28.4,27.8,00.0,37.3,30.3,08.2,0000.0,0014.87,0006.91,0005.93
2022-02-07 23:41:00,,0829.3,5.00,0.00,28.4,27.8,00.0,37.3,30.3,08.4,0000.0,0014.70,0007.22,0006.29
2022-02-07 23:42:00,,0829.2,4.99,0.00,28.4,27.8,00.0,37.3,30.3,08.2,0000.0,0014.97,0007.53,0006.63
2022-02-07 23:43:00,,0829.2,5.01,0.00,28.4,27.8,00.0,37.3,30.3,08.1,0000.0,0014.75,0007.81,0006.88
2022-02-07 23:44:00,,0829.2,4.99,0.00,28.5,27.9,00.0,37.3,30.3,07.9,0000.0,0014.87,0008.06,0007.11
2022-02-07 23:45:00,,0829.2,5.00,0.00,28.5,27.9,00.0,37.3,30.3,07.8,0000.0,0014.92,0008.30,0007.33
2022-02-07 23:46:00,,0829.2,5.01,0.00,28.5,27.9,00.0,37.3,30.3,07.7,0000.0,0015.03,0008.55,0007.58
2022-02-07 23:47:00,,0829.2,4.99,0.00,28.5,27.9,00.0,37.3,30.3,07.7,0000.0,0015.06,0008.75,0007.83
2022-02-07 23:48:00,,0829.2,5.01,0.00,28.5,27.8,00.0,37.3,30.3,07.7,0000.0,0014.96,0008.91,0008.02
2022-02-07 23:49:00,,0829.2,5.02,0.00,28.5,27.8,00.0,37.4,30.3,07.6,0000.0,0015.57,0008.91,0008.05
2022-02-07 23:50:00,,0829.3,5.00,0.00,28.5,27.8,00.0,37.4,30.3,07.6,0000.0,0015.41,0008.78,0007.94
2022-02-07 23:51:00,,0829.2,5.00,0.00,28.5,27.9,00.0,37.4,30.3,07.6,0000.0,0014.96,0008.65,0007.84
2022-02-07 23:52:00,,0829.2,5.00,0.00,28.5,27.9,00.0,37.4,30.3,07.5,0000.0,0015.50,0008.53,0007.71
2022-02-07 23:53:00,,0829.4,4.98,0.00,28.5,27.9,00.0,37.4,30.3,07.5,0000.0,0015.26,0008.44,0007.60
2022-02-07 23:54:00,,0829.5,5.02,0.00,28.5,27.9,00.0,37.4,30.3,07.6,0000.0,0015.73,0008.38,0007.54
2022-02-07 23:55:00,,0829.2,4.99,0.00,28.5,27.9,00.0,37.4,30.3,07.5,0000.0,0015.82,0008.32,0007.50
2022-02-07 23:56:00,,0829.3,5.02,0.00,28.5,27.9,00.0,37.4,30.3,07.4,0000.0,0015.71,0008.24,0007.45
2022-02-07 23:57:00,,0829.2,4.99,0.00,28.5,27.9,00.0,37.4,30.3,07.4,0000.0,0015.58,0008.15,0007.38
2022-02-07 23:58:00,,0829.2,4.98,0.00,28.5,27.9,00.0,37.4,30.3,07.4,0000.0,0015.58,0008.10,0007.31
2022-02-07 23:59:00,,0829.2,5.01,0.00,28.5,27.9,00.0,37.4,30.3,07.3,0000.0,0015.70,0008.01,0007.20
